Weather History for Fort Eustis, VA

Change the Weather History Date:

Tuesday, September 4, 2012

  Actual Average Record
Temperature  
Mean Temperature 81 °F -  
Max Temperature 87 °F 81 °F 93 °F (2002)
Min Temperature 75 °F 67 °F 57 °F (1997)
Cooling Degree Days 16    
Growing Degree Days 31 (Base 50)    
Moisture  
Dew Point 74 °F    
Average Humidity 87    
Maximum Humidity 100    
Minimum Humidity 58    
Precipitation  
Precipitation 0.00 in - - ()
Sea Level Pressure  
Sea Level Pressure 30.00 in    
Wind  
Wind Speed 5 mph (South)    
Max Wind Speed 9 mph    
Max Gust Speed -    
Visibility 10 miles    
Events      
Averages and records for this station are not official NWS values.
T = Trace of Precipitation, MM = Missing Value Source: NWS Daily Summary

Daily Weather History Graph

Daily Weather History Graph

Search for Another Location

Airport:

Trip Planner

Search our weather history database for the weather conditions in past years. The results will help you decide how hot, cold, wet, or windy it might be!

Date:

Astronomy

Sep. 04, 2012 Rise Set
Actual Time 6:39 AM EDT 7:29 PM EDT
Civil Twilight 6:13 AM EDT 7:56 PM EDT
Nautical Twilight 5:42 AM EDT 8:27 PM EDT
Astronomical Twilight 5:09 AM EDT 8:59 PM EDT
Moon 9:29 PM EDT (9/4) 10:37 AM EDT (9/4)
Length of Visible Light 13h 42m
Length of Day
12h 50m
Waning Gibbous, 84% of the Moon is Illuminated
Sep 4
Waning Gibbous
Sep 8
Last Quarter
Sep 15
New
Sep 22
First Quarter
Sep 29
Full

Hourly Weather History & Observations

Time (EDT) Temp. Heat Index Dew Point Humidity Pressure Visibility Wind Dir Wind Speed Gust Speed Precip Events Conditions
12:55 AM 77.4 °F - 73.8 °F 89% 30.03 in 10.0 mi South 4.6 mph - N/A   Clear
1:55 AM 77.0 °F - 73.6 °F 89% 30.01 in 10.0 mi South 5.8 mph - N/A   Partly Cloudy
2:06 AM 77.0 °F - 73.4 °F 89% 30.01 in 10.0 mi South 4.6 mph - N/A   Mostly Cloudy
2:27 AM 77.0 °F - 73.4 °F 89% 30.01 in 10.0 mi Calm Calm - N/A   Overcast
2:53 AM 77.0 °F - 73.4 °F 89% 30.01 in 10.0 mi South 3.5 mph - N/A   Mostly Cloudy
2:55 AM 76.3 °F - 73.6 °F 91% 30.01 in 10.0 mi South 4.6 mph - N/A   Mostly Cloudy
3:06 AM 77.0 °F - 73.4 °F 89% 30.01 in 10.0 mi Calm Calm - N/A   Mostly Cloudy
3:23 AM 77.0 °F - 73.4 °F 89% 30.00 in 10.0 mi South 3.5 mph - N/A   Mostly Cloudy
3:46 AM 75.2 °F - 73.4 °F 94% 30.00 in 10.0 mi South 4.6 mph - N/A   Mostly Cloudy
3:55 AM 75.9 °F - 74.1 °F 94% 30.00 in 10.0 mi South 4.6 mph - N/A   Mostly Cloudy
4:21 AM 75.2 °F - 73.4 °F 94% 30.00 in 10.0 mi SSW 3.5 mph - N/A   Mostly Cloudy
4:28 AM 75.2 °F - 75.2 °F 100% 29.99 in 10.0 mi South 3.5 mph - N/A   Light Drizzle
4:35 AM 75.2 °F - 73.4 °F 94% 30.00 in 10.0 mi SSE 3.5 mph - N/A   Mostly Cloudy
4:40 AM 75.2 °F - 75.2 °F 100% 30.00 in 10.0 mi South 3.5 mph - N/A   Mostly Cloudy
4:55 AM 75.6 °F - 74.5 °F 96% 30.00 in 10.0 mi South 4.6 mph - 0.00 in   Mostly Cloudy
5:10 AM 75.2 °F - 75.2 °F 100% 30.00 in 10.0 mi South 4.6 mph - N/A   Mostly Cloudy
5:24 AM 75.2 °F - 75.2 °F 100% 30.00 in 10.0 mi South 3.5 mph - N/A   Mostly Cloudy
5:32 AM 75.2 °F - 75.2 °F 100% 30.01 in 10.0 mi SSE 3.5 mph - N/A   Mostly Cloudy
5:55 AM 75.6 °F - 74.3 °F 96% 30.01 in 10.0 mi SSW 4.6 mph - N/A   Scattered Clouds
6:23 AM 75.2 °F - 75.2 °F 100% 30.02 in 10.0 mi Calm Calm - N/A   Mostly Cloudy
6:26 AM 75.2 °F - 75.2 °F 100% 30.02 in 10.0 mi South 3.5 mph - N/A   Mostly Cloudy
6:32 AM 75.2 °F - 75.2 °F 100% 30.02 in 10.0 mi Calm Calm - N/A   Overcast
6:44 AM 75.2 °F - 75.2 °F 100% 30.03 in 10.0 mi South 4.6 mph - N/A   Overcast
6:46 AM 75.2 °F - 75.2 °F 100% 30.03 in 10.0 mi South 3.5 mph - N/A   Overcast
6:52 AM 75.2 °F - 75.2 °F 100% 30.03 in 10.0 mi South 4.6 mph - N/A   Overcast
6:55 AM 75.7 °F - 74.3 °F 95% 30.03 in 10.0 mi South 5.8 mph - N/A   Overcast
7:13 AM 75.2 °F - 73.4 °F 94% 30.03 in 10.0 mi South 3.5 mph - N/A   Mostly Cloudy
7:19 AM 75.2 °F - 73.4 °F 94% 30.03 in 10.0 mi Calm Calm - N/A   Mostly Cloudy
7:36 AM 75.2 °F - 75.2 °F 100% 30.03 in 10.0 mi SSW 3.5 mph - N/A   Mostly Cloudy
7:55 AM 75.9 °F - 74.1 °F 94% 30.04 in 10.0 mi South 4.6 mph - N/A   Overcast
8:20 AM 77.0 °F - 75.2 °F 94% 30.03 in 10.0 mi South 5.8 mph - N/A   Overcast
8:28 AM 77.0 °F - 75.2 °F 94% 30.03 in 10.0 mi Variable 5.8 mph - N/A   Overcast
8:49 AM 77.0 °F - 75.2 °F 94% 30.03 in 10.0 mi SSW 5.8 mph - N/A   Overcast
8:55 AM 77.9 °F - 75.0 °F 91% 30.03 in 10.0 mi SSW 9.2 mph - N/A   Overcast
9:06 AM 78.8 °F - 75.2 °F 89% 30.03 in 10.0 mi SSW 8.1 mph - N/A   Mostly Cloudy
9:40 AM 78.8 °F - 75.2 °F 89% 30.03 in 10.0 mi SSW 5.8 mph - N/A   Overcast
9:55 AM 79.0 °F - 74.8 °F 87% 30.03 in 10.0 mi SSW 8.1 mph - N/A   Overcast
10:30 AM 80.6 °F 86.2 °F 75.2 °F 84% 30.03 in 10.0 mi SSW 9.2 mph - N/A   Scattered Clouds
10:55 AM 81.0 °F 87.1 °F 75.7 °F 84% 30.03 in 10.0 mi Variable 5.8 mph - N/A   Scattered Clouds
11:02 AM 82.4 °F 89.5 °F 75.2 °F 79% 30.03 in 10.0 mi SSW 8.1 mph - N/A   Mostly Cloudy
11:06 AM 82.4 °F 89.5 °F 75.2 °F 79% 30.03 in 10.0 mi SSW 8.1 mph - N/A   Scattered Clouds
11:55 AM 83.8 °F 92.5 °F 76.1 °F 77% 30.02 in 10.0 mi South 9.2 mph - N/A   Partly Cloudy
12:55 PM 84.0 °F 91.9 °F 75.0 °F 74% 30.00 in 10.0 mi Variable 4.6 mph - N/A   Scattered Clouds
1:55 PM 86.7 °F 95.0 °F 73.9 °F 66% 29.99 in 10.0 mi SSW 9.2 mph - N/A   Clear
2:55 PM 87.3 °F 93.2 °F 71.4 °F 59% 29.96 in 10.0 mi SSW 9.2 mph - N/A   Clear
3:55 PM 87.3 °F 94.9 °F 73.4 °F 63% 29.94 in 10.0 mi Variable 5.8 mph - N/A   Clear
4:45 PM 87.8 °F 93.8 °F 71.6 °F 58% 29.94 in 10.0 mi SW 6.9 mph - N/A   Light Drizzle
4:47 PM 87.8 °F 93.8 °F 71.6 °F 58% 29.94 in 10.0 mi SSW 8.1 mph - N/A   Clear
4:55 PM 87.4 °F 94.0 °F 72.0 °F 60% 29.94 in 10.0 mi SSW 6.9 mph - 0.00 in   Clear
5:55 PM 86.0 °F 93.4 °F 73.6 °F 66% 29.94 in 10.0 mi Variable 4.6 mph - N/A   Clear
6:55 PM 83.1 °F 89.5 °F 73.8 °F 73% 29.93 in 10.0 mi South 4.6 mph - N/A   Clear
7:55 PM 81.9 °F 88.2 °F 74.8 °F 79% 29.93 in 10.0 mi SSE 3.5 mph - N/A   Mostly Cloudy
8:55 PM 81.7 °F 87.6 °F 74.3 °F 78% 29.94 in 10.0 mi South 5.8 mph - N/A   Mostly Cloudy
9:55 PM 80.8 °F 86.1 °F 74.5 °F 81% 29.94 in 10.0 mi South 6.9 mph - N/A   Scattered Clouds
10:55 PM 80.1 °F 84.8 °F 74.7 °F 83% 29.94 in 10.0 mi South 9.2 mph - N/A   Overcast
11:55 PM 79.5 °F - 74.8 °F 86% 29.94 in 10.0 mi South 8.1 mph - N/A   Mostly Cloudy